GFSGL_con_sbcape_057.txt.gz
CAPE
2495 2472 2463 2269 2194 1928 1846 1444 1469 1351 1063 875 911 1131 828 659 610 706 741 1035 434 941 660 667 712 883 1320 1395 1080 791 1706 1492 1534 670 293 241 469 938 846 1244 672 560 0
2306 2250 2035 1743 1504 1541 1380 1248 1198 1035 746 645 709 629 417 317 447 948 889 810 595 584 579 579 485 893 1011 1099 1584 1272 1015 1148 1091 442 44 11 35 623 1057 463 62 98 5
1816 1607 1534 1431 1409 1302 1119 1026 812 666 575 505 370 247 162 224 870 1056 762 671 585 655 637 273 357 513 520 1270 1087 993 1661 1448 1279 242 9 7 4 4 5 3 4 4 2
1397 1353 1368 1338 1155 977 760 605 496 479 428 300 210 166 75 234 690 605 689 602 478 167 82 62 57 35 154 569 417 997 1382 1246 1153 97 7 8 4 2 2 1 1 2 3
1189 1083 1069 893 609 492 549 633 515 478 298 187 156 77 89 112 186 857 582 589 541 148 60 50 83 63 6 23 648 999 1361 1339 354 1 11 10 4 1 1 4 3 3 3
919 674 366 389 507 837 984 923 505 303 279 111 407 479 699 2 0 0 0 644 615 265 68 27 54 7 2 0 0 0 636 862 410 66 14 7 11 4 2 2 3 1 0
397 199 298 443 692 751 642 680 403 645 1164 798 827 716 562 255 0 0 0 653 652 430 62 49 9 17 15 94 9 0 0 9 28 166 53 7 6 4 3 6 4 3 3
218 179 322 385 577 538 613 634 612 908 744 728 595 551 695 0 1 1 0 490 526 415 42 25 3 129 123 112 203 191 171 50 3 30 14 11 12 12 1 2 7 9 7
111 275 297 453 444 431 646 702 1285 868 956 789 449 593 655 41 0 1 0 340 272 150 48 13 4 105 0 3 163 152 123 46 0 0 0 0 0 0 0 1 2 3 4
166 222 342 361 460 570 881 887 885 912 838 686 504 626 113 115 1 1 0 373 113 16 5 1 0 35 0 0 182 314 132 18 4 0 0 0 0 0 0 0 0 2 3
172 222 353 712 702 1083 1177 950 901 802 765 961 594 443 432 153 0 1 0 131 52 16 8 14 0 1 0 0 19 456 108 30 2 8 16 10 2 4 6 1 1 0 3
181 234 446 744 483 667 1008 1146 943 889 642 662 406 422 175 96 1 1 0 0 2 9 30 25 1 2 1 0 0 0 1 6 26 17 9 12 10 9 3 20 0 0 3
238 288 630 786 709 779 785 933 547 623 559 510 530 75 93 115 14 1 2 0 0 45 2 0 2 2 1 0 0 0 4 49 19 16 14 16 12 5 3 3 0 0 84
319 350 701 754 650 742 718 1022 882 846 380 158 219 81 67 70 67 26 1 1 0 0 1 0 1 0 0 0 0 0 19 19 5 7 9 12 12 16 1 39 19 26 117
385 240 312 497 988 989 683 406 738 462 263 655 520 49 98 42 18 17 16 8 42 2 3 5 3 1 0 1 3 10 13 3 24 8 14 9 11 12 11 22 62 78 48
361 241 258 259 386 614 454 187 1 1 1 0 0 16 1 0 0 0 0 0 0 0 15 6 7 5 4 6 2 5 3 6 17 8 8 2 1 3 0 0 74 82 55
564 619 334 272 171 258 487 473 186 0 2 2 0 0 0 0 0 2 2 2 0 0 8 9 7 7 7 7 2 1 0 17 6 11 8 11 9 21 7 46 40 41 47
330 82 211 409 250 118 489 468 160 42 21 11 0 0 2 2 2 1 2 1 2 0 13 15 7 8 6 5 4 2 6 6 18 28 66 83 108 75 37 36 42 77 60
331 215 182 322 258 78 369 565 347 146 27 8 1 0 0 1 1 1 1 4 9 3 0 62 8 5 14 12 6 8 57 57 73 78 107 87 49 22 42 73 58 15 8
309 34 136 253 293 264 341 434 523 346 212 81 4 3 0 1 5 4 1 0 37 8 35 60 41 1 0 10 38 52 74 52 87 61 69 58 33 41 116 77 90 50 0
252 113 96 307 258 319 318 359 597 608 467 217 97 0 0 4 10 9 17 17 24 10 8 36 36 44 12 13 12 26 53 42 59 95 81 78 148 70 126 106 20 3 0
152 70 285 319 183 250 170 495 621 677 635 541 388 0 0 2 117 23 9 14 78 13 29 87 58 15 60 51 21 66 49 91 80 120 99 119 163 192 131 38 14 5 22
128 46 136 290 205 20 81 75 266 446 416 717 243 2 0 69 368 316 238 273 267 243 239 228 166 112 102 144 126 125 138 139 165 210 205 187 268 268 172 155 85 94 116
113 104 74 173 205 344 218 203 60 29 169 472 209 143 220 519 406 408 383 390 388 352 281 303 203 160 170 211 250 281 263 310 395 296 305 302 366 330 373 345 297 273 423
64 103 49 106 181 166 213 266 220 107 70 272 238 127 101 138 257 239 348 279 284 285 259 143 72 20 0 0 0 0 0 0 0 0 173 339 300 339 212 184 231 185 167
442 143 136 333 255 253 73 0 20 161 132 24 0 0 0 0 0 0 1 0 1 0 0 0 0 0 0 0 0 0 0 0 0 1 0 26 118 126 125 107 57 93 81

GFSGL_con_sbcape_060.txt.gz
CAPE
2983 3253 3251 3390 2939 2686 2823 2424 2383 2348 1766 1691 1617 1350 855 811 1005 1229 1027 919 1006 806 724 702 773 882 933 705 643 396 406 434 310 302 226 290 450 388 659 28 121 0 0
2974 3046 3028 2671 2456 2378 2134 2204 1969 1875 1328 1217 1234 809 722 852 1080 960 926 852 590 657 650 636 368 908 643 873 501 280 358 307 369 35 18 0 40 472 597 230 111 10 1
2657 2478 2455 2160 2030 2130 1943 1785 1499 1508 1258 885 968 522 580 611 546 889 788 534 774 477 580 467 425 511 239 442 621 324 561 408 395 0 0 3 1 1 1 1 1 1 1
2156 1904 1864 1902 1858 1767 1586 1514 1397 981 1048 991 832 420 325 631 592 735 584 699 631 150 104 47 5 9 83 119 293 316 488 256 171 0 3 2 0 1 0 0 0 0 1
1746 1672 1731 1792 1547 1389 1152 1045 923 1139 844 512 536 304 524 313 240 658 498 538 466 119 86 38 22 24 10 1 51 129 289 234 3 0 4 1 1 0 0 1 1 1 1
1374 1451 1518 1243 940 934 1054 1115 1266 1043 953 491 462 292 34 0 0 7 456 774 591 107 27 16 14 7 0 0 0 0 4 196 0 5 0 1 1 1 1 0 1 0 0
1298 1123 805 699 836 919 951 870 963 1298 925 795 990 863 456 0 0 0 0 762 318 402 72 6 18 26 2 32 0 0 0 44 14 4 0 0 1 1 1 1 0 0 0
793 472 487 764 775 823 723 828 1043 1094 1094 1297 1012 887 722 0 1 0 0 811 589 283 17 20 3 87 45 104 105 76 29 13 16 18 0 0 0 0 0 0 0 1 1
420 436 437 836 776 783 632 875 1266 1011 975 862 741 578 352 0 0 1 0 518 212 30 35 6 8 78 4 6 150 83 0 0 0 0 0 0 0 0 0 0 1 0 1
358 383 400 687 764 446 684 1275 1086 978 981 1100 725 617 145 0 0 0 0 206 34 3 2 0 0 6 0 0 151 65 0 0 0 0 0 0 0 0 0 0 0 0 0
432 406 761 851 606 1025 1004 1164 968 926 1014 800 555 328 482 40 0 1 0 120 0 1 6 1 0 2 0 0 8 23 0 0 0 1 2 1 1 1 0 0 0 0 0
458 667 1025 752 466 861 1090 845 899 929 813 718 474 474 325 35 0 1 0 0 0 2 3 6 0 1 2 0 1 0 0 0 3 3 2 2 3 1 0 0 0 0 0
704 938 905 932 778 719 948 1065 798 784 567 722 385 257 72 24 0 1 2 0 0 0 0 1 2 1 0 0 0 0 0 1 3 5 6 3 0 0 3 0 0 0 0
1187 1018 961 892 746 885 926 880 630 764 554 573 221 99 78 102 13 1 0 0 0 0 0 0 1 0 0 0 0 2 15 2 1 3 3 4 2 3 0 0 0 0 5
1234 1073 980 725 662 905 164 302 670 0 72 225 741 35 16 17 43 23 8 15 5 0 1 1 0 0 0 0 0 9 7 0 0 0 4 2 1 0 0 1 0 0 5
986 1063 863 576 1034 623 176 0 1 1 1 0 0 55 0 1 0 0 0 0 0 0 5 1 1 1 0 1 1 2 4 1 0 0 1 2 2 0 0 0 8 4 12
711 815 363 714 535 513 444 307 0 0 1 0 0 0 0 1 2 2 0 0 0 0 1 3 2 2 2 0 0 2 2 1 0 0 3 2 0 1 0 0 1 30 23
1173 305 289 80 601 451 350 397 30 4 2 0 0 0 2 2 2 2 2 0 0 2 1 2 3 3 2 0 0 0 2 1 7 7 0 0 0 0 0 0 12 7 7
786 312 324 121 161 299 354 237 21 8 7 0 1 0 1 1 1 2 0 7 0 0 11 8 2 1 0 3 0 0 0 0 2 14 17 16 10 8 12 5 0 0 3
605 222 141 170 121 616 482 248 322 259 52 0 0 0 1 0 2 1 0 18 9 3 20 8 0 0 0 0 0 0 13 5 5 42 39 34 31 26 13 6 0 11 0
334 154 5 313 314 412 580 724 638 416 341 41 10 0 0 1 2 0 0 3 34 20 40 7 1 0 0 3 1 23 20 42 54 48 44 38 31 18 24 13 16 30 47
206 70 206 277 280 519 677 761 883 644 451 200 45 0 0 0 0 5 19 30 32 38 43 29 2 6 0 1 6 23 31 49 57 61 34 37 56 75 52 71 92 44 16
120 110 320 204 307 50 337 754 942 671 443 305 12 0 0 0 12 39 33 88 69 63 115 87 26 28 25 10 12 24 24 46 49 106 86 104 116 115 147 183 171 68 66
142 78 202 202 176 168 249 442 585 387 571 209 23 0 0 4 31 146 136 128 335 2 1 28 0 0 0 0 0 0 0 0 0 6 122 160 169 120 159 187 144 115 89
176 84 62 116 144 338 181 153 352 411 327 179 202 269 0 0 0 0 0 0 0 0 0 0 0 0 0 0 0 0 0 0 0 0 0 3 201 313 245 192 144 99 101
23 260 174 4 16 72 225 38 22 0 0 0 0 0 0 0 0 0 0 0 0 0 0 0 0 0 0 0 0 0 0 0 0 0 0 0 15 50 23 1 13 17 33

GFSGL_con_sbcape_063.txt.gz
CAPE
1879 1871 1878 2038 2532 2156 2108 1788 1634 1684 1579 1405 1053 706 513 407 350 159 117 193 173 130 141 100 77 66 129 70 15 27 1 0 5 18 3 4 73 78 24 0 0 0 0
1994 2140 2258 2018 1747 1500 1047 831 1042 1165 1077 809 606 375 355 309 307 59 166 62 121 28 1 0 16 179 69 82 0 30 10 5 8 10 2 0 10 27 9 37 1 0 1
2343 2220 1955 1774 1437 977 621 470 462 393 418 443 146 91 225 307 44 51 148 68 26 0 0 0 16 28 63 72 89 40 30 84 0 0 0 0 1 1 0 0 1 0 1
1805 1592 1449 1298 1056 650 490 393 353 257 203 186 40 154 176 53 7 57 142 115 3 0 0 0 0 0 7 37 67 54 43 9 0 0 0 0 1 1 0 0 0 1 1
1564 1409 1298 1051 737 616 488 413 179 199 171 51 25 20 33 93 137 331 256 34 0 0 0 0 0 0 0 1 46 40 12 0 0 0 0 0 0 0 0 1 0 1 1
1292 1256 1157 856 592 411 292 194 201 124 52 0 1 4 0 0 17 174 197 10 0 0 0 0 0 0 1 0 0 4 0 0 0 0 0 2 0 0 1 0 0 0 0
1173 1118 893 514 370 246 334 337 275 148 132 15 4 0 0 0 0 0 45 9 0 0 0 0 1 8 7 0 0 0 2 0 0 0 0 0 0 0 0 1 0 0 0
1015 730 416 424 419 327 270 221 245 17 40 63 50 0 0 0 1 0 0 0 0 0 0 0 0 10 1 7 1 0 0 0 0 0 0 0 0 0 0 0 0 0 1
378 253 359 390 354 189 134 160 93 31 15 33 32 0 0 0 0 1 0 0 1 0 0 1 3 9 6 0 0 0 0 1 0 0 0 0 0 0 0 0 0 0 0
154 172 412 373 312 130 62 264 69 13 48 52 75 0 0 0 0 0 0 0 0 1 0 0 0 0 2 0 0 0 0 0 0 0 0 1 0 0 0 0 0 0 0
91 104 464 440 361 278 341 126 112 128 67 63 60 0 0 0 1 1 0 0 0 0 0 0 0 2 2 0 0 0 0 0 0 0 1 1 1 1 0 0 0 0 0
142 504 543 420 482 400 214 110 107 55 33 9 0 2 0 0 1 1 0 0 0 0 0 0 1 1 2 0 0 0 0 0 0 1 1 1 1 1 0 0 0 0 0
363 372 293 270 334 135 111 149 130 66 34 4 0 6 1 0 0 1 0 0 0 0 0 1 1 1 2 0 0 0 0 0 1 1 1 1 0 0 0 0 0 0 0
305 338 336 287 260 286 196 130 113 56 69 4 4 28 4 1 1 0 0 0 1 0 1 0 0 1 0 0 0 0 0 0 0 1 1 0 0 0 0 0 0 0 0
375 401 239 208 121 0 0 0 0 0 7 15 0 8 44 9 0 0 0 0 0 0 0 0 0 0 1 0 0 0 0 0 0 0 3 0 0 0 0 0 0 0 0
413 329 260 230 0 0 0 0 1 0 2 1 6 0 0 11 0 0 0 0 0 0 0 0 0 0 0 0 1 0 0 0 0 0 0 0 0 0 0 0 0 0 0
399 227 167 328 3 0 0 0 0 0 1 1 0 0 0 1 2 0 0 0 0 0 0 1 0 0 0 0 0 2 0 0 0 0 0 0 0 0 0 0 0 0 0
423 247 327 346 221 62 1 0 0 0 0 0 0 0 1 1 2 2 0 0 0 0 0 1 1 1 1 0 0 0 0 0 0 0 0 0 0 0 0 0 0 0 0
242 106 246 280 106 59 49 0 0 1 0 2 0 0 0 1 1 2 0 0 0 0 0 0 1 0 0 0 0 0 0 0 0 0 0 0 0 0 0 0 0 0 0
1 45 74 285 17 30 7 0 0 0 0 0 1 1 0 0 0 0 0 0 0 0 0 0 0 0 0 0 0 0 0 0 0 0 0 0 0 0 0 0 0 0 0
0 0 9 133 69 54 0 0 0 0 0 0 0 0 0 0 0 0 0 5 3 0 4 0 0 0 0 0 0 0 0 0 0 0 0 1 0 0 0 0 0 0 0
0 4 10 76 94 172 85 79 0 0 0 0 0 0 0 0 0 0 0 0 4 0 1 1 0 0 0 0 0 0 1 0 1 5 16 13 5 0 0 0 0 0 17
0 6 11 38 40 102 160 222 89 0 0 0 0 0 0 0 0 0 8 5 5 4 0 0 2 0 0 0 0 0 0 0 0 0 22 20 11 8 15 12 10 12 1
0 2 37 23 75 145 318 306 367 115 0 0 0 0 0 0 2 1 0 0 0 0 0 0 0 0 0 0 0 0 0 0 0 0 0 33 52 14 22 52 53 101 123
10 12 18 1 40 159 114 366 253 57 2 0 0 0 0 0 0 0 0 0 0 0 0 0 0 0 0 0 0 0 0 0 0 0 0 0 1 0 3 12 7 21 17
0 0 0 0 5 1 0 0 0 0 0 0 0 0 0 0 0 0 0 0 0 0 0 0 0 0 0 0 0 0 0 0 0 0 0 0 0 0 0 0 0 0 0

GFSGL_con_sbcape_069.txt.gz
CAPE
0 0 0 41 101 145 420 696 751 658 669 705 579 465 488 337 141 72 0 0 0 0 0 0 0 0 0 0 0 0 0 0 0 0 0 0 0 1 1 0 0 0 0
0 2 186 260 469 508 634 735 551 650 691 702 552 458 418 326 56 0 0 0 0 0 0 0 0 0 0 0 0 0 0 0 0 0 0 0 0 3 2 0 2 2 1
5 110 458 656 818 914 933 701 601 578 654 698 525 471 319 101 0 0 0 0 0 0 0 0 0 0 0 0 0 0 0 0 0 0 0 0 1 3 1 0 1 1 1
641 680 861 1132 1220 1178 955 795 750 680 694 515 412 370 165 25 0 0 0 0 0 0 0 0 0 0 0 0 0 0 0 0 0 0 0 1 0 1 0 0 0 0 1
1352 1274 1229 1201 901 874 901 843 592 601 482 414 128 37 3 0 0 0 0 0 0 0 0 0 0 0 0 0 0 1 1 0 0 0 1 0 1 1 1 0 0 0 1
1607 1355 1045 856 790 613 481 325 314 293 124 0 1 0 0 0 0 1 0 0 0 0 0 0 0 0 0 0 0 8 1 0 0 0 0 0 0 0 1 1 0 0 0
1406 1198 939 844 675 442 311 258 138 11 0 0 0 0 0 0 0 7 23 10 0 0 0 0 0 0 0 0 1 1 0 0 0 0 0 0 0 0 0 1 0 0 0
1186 1020 796 676 439 266 131 12 0 0 0 0 0 0 0 0 0 2 3 0 0 0 0 0 0 2 3 0 0 1 2 0 0 0 0 0 0 0 0 0 0 0 0
1020 812 646 484 245 66 27 0 0 0 0 0 0 0 0 0 1 1 0 0 0 0 0 0 0 2 1 0 3 1 0 1 1 0 0 0 0 0 0 0 1 0 0
807 610 423 314 93 22 0 0 0 0 0 0 0 0 0 1 0 1 0 0 1 0 0 0 1 1 1 1 0 0 0 0 0 0 0 1 1 0 0 0 0 0 0
470 388 187 74 5 0 0 0 0 0 0 0 0 0 0 0 1 1 0 0 0 0 0 1 0 0 0 1 0 0 0 0 1 0 0 1 1 0 0 0 0 0 0
16 43 14 0 0 0 0 0 0 0 0 0 0 0 1 0 1 0 0 0 0 0 0 0 0 1 1 1 0 2 0 0 1 1 1 1 1 1 1 0 0 0 0
14 76 0 0 0 0 0 0 0 0 0 2 1 1 1 2 0 1 0 2 0 0 0 0 0 2 1 2 2 0 0 0 1 1 1 0 0 0 0 0 0 0 0
137 102 3 0 0 0 0 0 0 0 0 0 1 1 1 1 0 0 0 1 1 0 1 1 0 1 0 0 0 0 0 0 0 1 1 0 1 1 1 0 0 0 0
146 48 0 1 0 0 0 1 0 0 0 0 0 0 1 1 0 0 0 0 0 0 0 0 1 0 0 1 2 0 0 0 0 0 0 1 1 1 0 0 0 0 0
143 38 27 1 0 0 0 0 1 1 1 1 0 0 0 0 0 1 0 0 0 0 1 0 1 1 1 2 1 1 0 0 0 0 0 0 0 0 0 0 0 0 0
79 5 6 0 0 0 0 0 0 0 1 2 2 0 0 0 3 3 2 2 2 0 0 1 1 1 1 2 1 0 0 0 0 0 0 0 0 0 0 0 0 0 0
49 10 8 0 0 0 0 0 0 0 0 1 0 0 2 2 1 2 2 1 0 0 0 0 0 1 1 0 0 0 0 0 0 0 0 0 0 0 0 0 0 0 0
5 22 15 0 0 0 0 0 0 0 0 0 1 0 0 1 1 1 1 0 0 0 1 1 0 0 0 0 0 0 0 0 0 0 0 0 0 0 0 0 0 0 0
44 10 3 0 0 0 0 0 0 0 1 1 1 0 0 0 0 0 0 0 0 0 0 0 0 0 0 0 0 0 0 0 0 0 0 0 0 0 0 0 0 0 0
45 1 1 0 0 0 0 0 0 0 0 0 0 0 0 0 1 0 0 0 0 0 0 0 0 0 0 1 0 0 0 0 0 0 0 0 0 0 0 0 0 0 0
40 1 8 0 0 0 0 0 0 0 0 0 1 1 0 0 0 0 0 0 0 0 0 0 0 0 0 0 0 0 0 0 0 0 0 0 0 0 0 0 0 0 0
59 29 3 0 0 0 0 0 0 0 0 0 0 0 0 0 0 0 0 0 0 0 0 0 0 0 0 0 0 0 0 0 0 0 0 1 0 0 0 0 0 0 0
39 53 21 0 0 0 0 0 0 0 0 0 0 0 0 0 0 0 0 1 1 0 0 0 0 0 0 0 0 0 0 0 0 0 0 0 5 1 9 11 9 6 0
8 43 17 0 0 0 0 0 0 0 0 0 0 0 0 0 0 0 0 2 1 0 0 0 0 0 0 0 0 0 0 0 0 0 0 0 0 0 0 0 0 0 0
0 0 0 3 26 11 0 0 0 0 0 0 0 0 0 0 0 0 0 0 0 0 0 0 0 0 0 0 0 0 0 0 0 0 0 0 0 0 0 0 0 0 0

GFSGL_con_sbcape_072.txt.gz
CAPE
0 0 0 0 0 0 47 222 389 421 621 652 708 589 582 399 244 277 184 13 0 0 0 0 0 0 0 0 0 0 0 0 0 3 5 3 6 5 3 2 2 1 2
0 0 0 0 0 28 124 274 381 524 658 715 708 600 440 280 192 191 78 15 0 0 0 0 0 0 0 0 0 0 0 0 0 1 2 5 4 4 2 4 5 2 4
0 0 0 0 7 105 197 376 480 593 719 738 625 598 398 282 182 77 32 0 0 0 0 0 0 0 0 0 0 0 0 0 0 1 2 6 7 5 5 4 5 4 3
0 0 34 108 261 335 425 510 622 707 744 734 665 511 365 221 89 0 0 0 0 0 0 0 0 0 0 0 0 0 0 1 0 1 1 5 2 4 2 0 0 1 2
0 17 195 434 606 748 716 718 744 775 800 669 547 398 184 96 0 0 0 0 2 0 0 0 0 0 0 0 0 0 0 1 2 3 6 5 5 2 1 2 6 2 1
571 395 754 949 1056 1081 1015 1071 920 844 613 489 383 229 65 17 0 0 0 0 0 0 0 0 0 0 0 0 0 0 3 12 4 2 0 0 8 2 1 1 2 7 8
1150 1105 1128 1189 1122 1176 1068 1003 833 667 346 304 137 68 1 0 0 0 0 0 0 0 0 0 0 0 0 0 1 1 3 0 0 0 0 1 2 1 2 4 4 0 2
1268 1167 1224 1209 984 1003 1051 811 609 213 164 87 17 0 0 0 0 0 0 0 0 0 0 0 0 0 0 0 0 1 5 1 0 0 0 0 0 0 2 0 0 1 2
1314 1172 1216 1049 868 893 751 228 59 6 3 0 0 0 0 0 0 2 0 0 0 0 0 0 0 0 7 1 0 12 1 1 1 1 0 0 0 0 0 0 1 0 2
939 924 764 606 549 402 171 0 0 0 0 0 0 0 0 0 1 1 0 0 0 0 0 0 0 0 1 1 16 1 0 1 0 1 2 0 1 0 0 0 2 2 1
497 718 473 318 154 4 0 0 0 0 0 0 0 0 1 1 0 2 0 0 0 2 1 1 1 1 1 2 0 2 0 1 1 2 3 3 2 2 1 0 2 0 0
54 160 418 95 11 0 0 0 0 0 0 0 0 1 4 3 0 1 1 0 0 1 1 1 0 1 1 1 0 1 0 1 2 3 2 3 2 2 1 0 0 0 0
75 249 96 44 0 0 0 0 0 0 0 2 1 0 1 2 1 1 1 2 1 0 0 0 1 1 1 1 2 0 0 1 2 3 4 4 2 2 0 0 0 0 0
2 2 62 0 0 0 0 0 0 0 2 2 3 1 6 3 2 1 0 0 1 0 1 0 0 0 0 0 0 1 1 0 2 2 1 2 1 1 1 0 1 0 0
2 82 60 4 0 0 0 0 0 1 0 2 4 1 1 2 2 0 0 2 2 0 0 1 2 1 1 1 2 1 0 3 3 3 1 1 1 1 1 0 0 0 0
124 60 30 2 1 1 0 0 1 2 1 0 0 0 1 0 0 1 0 0 1 1 2 1 0 1 1 1 1 1 1 0 3 2 2 1 1 0 1 1 0 0 7
103 14 0 1 0 0 0 0 0 0 2 2 0 0 0 0 2 1 1 2 2 0 2 1 1 1 1 3 1 0 1 0 0 0 1 3 0 0 0 1 0 0 1
16 0 0 0 1 0 0 0 0 0 0 1 1 0 2 2 1 2 1 1 1 1 4 4 2 1 1 2 1 0 0 0 1 1 0 1 1 0 1 0 1 0 0
0 0 2 2 1 0 0 0 0 1 1 1 1 0 0 1 1 1 1 1 1 0 1 1 9 1 1 1 0 0 0 0 0 1 1 0 0 0 0 0 0 0 0
0 0 0 1 0 0 0 0 1 0 2 2 1 1 1 0 1 0 1 1 0 1 3 1 1 1 1 1 0 0 0 0 0 0 2 1 0 0 0 0 2 3 0
0 0 0 1 0 0 1 1 0 1 1 1 2 0 0 1 1 1 1 0 0 0 1 0 0 2 1 1 0 0 0 0 0 0 0 0 0 0 0 0 0 0 0
0 0 0 0 1 1 1 1 1 0 1 1 1 1 0 0 0 0 0 1 5 4 3 0 0 0 0 1 0 0 1 2 0 0 0 0 0 0 0 0 0 0 0
1 8 2 1 0 0 0 0 0 1 0 0 0 0 0 1 0 1 0 1 1 0 0 0 0 0 0 0 0 0 0 1 0 0 0 0 0 1 0 0 0 0 0
27 20 0 0 1 1 2 0 0 0 0 0 0 0 2 0 0 1 1 1 1 0 0 0 0 0 0 0 0 0 0 0 0 0 0 0 17 1 18 9 2 1 1
26 24 0 0 0 0 2 2 0 0 1 1 0 0 0 0 0 1 1 1 0 0 0 0 0 0 0 0 0 0 0 0 0 0 1 3 1 1 1 3 2 0 0
4 2 0 0 0 0 0 2 0 0 1 0 0 0 0 0 0 0 1 0 0 0 0 0 0 0 0 0 0 0 0 0 0 0 0 0 0 0 0 0 0 0 0

GFSGL_con_sbcape_075.txt.gz
CAPE
0 0 0 0 0 40 380 849 1103 1727 1880 1599 1818 1968 2076 2212 2218 2114 1975 1624 1152 641 925 902 822 738 512 378 330 325 312 123 346 98 3 15 13 33 24 3 1 153 91
2 2 0 0 0 108 476 821 1386 1697 1495 1449 1802 2010 2226 2213 2148 2021 1899 1184 519 484 613 784 759 375 612 541 421 528 498 485 441 604 6 15 11 8 12 5 3 5 194
0 5 77 1 0 284 630 1054 1324 1299 1465 1585 1825 2109 2198 2082 1960 1859 1632 1165 473 386 666 693 548 524 610 428 481 551 577 499 396 284 166 16 17 10 8 10 9 10 8
0 8 222 196 92 507 879 1179 1354 1456 1545 1678 1928 2068 2063 1928 1747 1579 1188 569 502 585 556 548 462 492 531 554 634 771 733 583 430 371 159 21 15 8 19 7 17 10 9
0 0 352 230 409 548 833 1199 1609 1714 1660 1729 1912 2065 2057 1838 1442 1189 887 666 697 548 583 433 493 258 74 289 544 699 612 547 458 424 92 22 45 13 66 11 6 2 9
1 0 135 147 250 886 1248 1567 1725 1641 1796 1860 1968 2057 1941 1514 238 127 321 603 611 564 550 354 194 0 0 0 0 0 224 632 576 222 186 155 89 30 4 9 9 22 20
3 0 130 216 580 1116 1374 1524 1699 1885 1986 2117 2134 1976 1886 1291 0 0 93 655 638 608 472 336 178 21 0 0 0 1 0 1 17 605 80 44 114 18 4 3 3 74 38
1 10 316 490 1031 1499 1672 1599 1598 1433 1941 1913 1927 1921 1803 745 0 0 0 613 606 549 415 359 259 83 9 9 19 61 122 25 11 5 6 21 265 193 14 7 22 9 8
228 787 742 1160 1461 1282 1331 1269 1230 1438 1510 1830 1627 825 527 0 1 1 0 459 444 320 140 68 31 4 0 0 51 123 58 3 1 1 0 0 0 14 127 30 46 54 22
1002 927 1243 1337 1331 1428 1295 1240 1280 1550 1308 566 560 496 216 0 1 1 42 248 331 130 24 0 1 0 1 1 109 64 26 3 4 2 1 0 0 0 0 77 46 73 19
139 944 1530 1880 1719 1165 882 1188 1088 518 170 209 92 164 25 0 0 2 5 335 290 158 11 2 0 0 1 1 4 32 14 10 1 3 6 7 6 4 5 19 67 126 51
170 917 1179 1268 1072 911 999 872 279 176 2 120 18 5 3 2 0 0 1 50 5 231 4 8 1 1 1 1 0 1 0 1 5 5 15 11 5 7 9 9 48 48 6
585 709 816 823 708 720 722 839 426 228 285 11 0 1 4 4 1 2 2 0 0 3 4 0 0 1 0 1 2 1 0 5 8 9 14 12 8 8 10 5 2 0 0
115 433 440 356 348 286 381 409 300 280 137 10 0 0 2 2 4 2 0 0 1 0 0 0 0 0 0 0 0 1 7 7 6 7 10 8 7 9 8 4 3 3 2
8 192 112 109 106 1 3 87 218 171 56 26 7 0 1 2 3 0 1 2 2 0 2 3 4 4 4 6 7 8 5 6 12 9 10 8 6 4 3 3 3 5 1
289 107 97 3 4 2 1 1 1 1 0 0 0 0 0 0 0 1 0 0 0 0 3 8 6 5 5 5 6 5 3 0 12 6 8 5 3 3 2 2 3 0 74
151 167 69 1 17 7 15 1 1 1 1 2 0 0 0 0 2 2 2 2 0 0 4 7 6 4 4 4 5 4 3 3 14 21 17 5 4 5 0 3 2 6 23
96 7 5 27 75 43 65 49 5 2 3 2 1 0 2 2 2 2 2 1 1 2 6 2 27 4 5 8 3 0 2 1 3 9 22 21 2 2 7 15 13 37 34
105 145 117 102 92 81 83 45 34 5 0 1 1 0 0 1 1 1 1 3 1 2 5 6 25 17 6 6 4 3 0 2 4 8 11 24 18 6 2 1 0 0 0
241 29 56 19 19 131 172 222 145 13 2 6 2 1 2 1 3 3 6 6 52 23 18 24 42 10 5 21 7 3 9 15 25 26 14 5 5 7 3 5 1 4 7
62 6 0 96 200 263 254 104 6 4 7 2 2 1 0 0 3 2 1 3 0 14 49 14 5 6 5 94 31 10 18 4 19 12 18 34 2 1 0 2 3 63 88
83 93 212 268 200 152 49 2 7 2 2 2 3 1 0 3 4 5 3 3 17 41 33 22 29 13 21 4 0 0 7 8 25 6 14 8 37 12 10 25 34 36 17
251 278 201 145 57 0 2 1 2 2 2 2 4 5 4 8 5 1 1 1 1 0 0 0 0 0 0 0 0 0 20 111 32 48 1 0 3 19 1 5 0 2 62
362 278 151 11 10 4 4 2 0 0 2 4 6 7 1 1 1 1 1 2 1 0 0 0 0 0 0 0 0 0 0 0 0 5 2 26 90 50 85 1 1 3 0
427 300 194 16 6 7 2 3 5 5 4 6 3 0 1 0 1 2 2 2 0 0 0 0 0 0 0 0 0 0 0 1 0 0 2 2 1 0 1 0 0 0 0
351 295 197 90 17 14 5 3 3 4 2 0 0 0 0 1 1 2 1 0 0 0 0 0 0 0 0 0 0 0 0 0 0 0 0 0 0 0 0 0 0 0 0